User: anonymous   Login
Location: Ch�teau-Arnoux
(44.0814°N, 6.0027°E)
Time: 02:38:21
(UTC+00:00)
Language:

Meteor 2-20 - Orbit

View from above orbital plane
View from above orbital plane
View from above satellite
View from above satellite

Ground track
Ground track

The orbit data is extracted from the following two-line orbital elements,

1 20826U 90086A   20021.16180358 -.00000007  00000-0 -19795-4 0  9992
2 20826  82.5239 261.4516 0014457 106.5098 253.7652 13.84243476480895
Epoch (UTC): 21 January 2020 03:52:59
Eccentricity: 0.0014457
inclination: 82.5239°
perigee height: 938 km
apogee height: 959 km
right ascension of ascending node: 261.4516°
argument of perigee: 106.5098°
revolutions per day: 13.84243476
mean anomaly at epoch: 253.7652°
orbit number at epoch: 48089

The dashed part of the orbit path shows where the satellite is in the earth's shadow,  

DLR